Probability
6 6 6 5 4 2 0 0 1 2 2 1 0 0 0 0 0 0 1 1 1 0 0 0 0 0 0 0 0 0 0 0 0 1 1 1 0 0
6 6 6 6 5 3 2 1 2 3 2 1 0 0 0 0 0 0 0 0 0 0 0 0 0 0 0 0 0 0 0 0 0 0 0 0 0 0
7 7 8 7 6 6 5 4 3 3 3 1 0 0 0 0 1 1 1 1 1 1 1 1 1 0 0 0 0 0 0 0 0 0 0 0 0 0
9 9 9 7 6 7 7 6 5 5 3 2 2 1 1 1 2 2 2 2 2 2 2 2 2 1 0 0 0 0 0 0 0 0 0 0 0 0
10 10 9 7 6 7 7 7 6 6 4 3 3 3 2 3 3 2 1 1 1 1 3 3 2 1 0 0 0 0 0 0 0 0 0 0 0 0
9 9 9 8 7 7 8 7 6 5 5 4 3 3 3 3 2 1 0 0 0 1 2 2 1 1 0 0 0 0 0 0 0 0 0 0 0 0
9 9 9 9 7 6 6 6 5 4 4 3 2 2 2 1 1 0 0 0 0 0 1 1 1 1 1 1 0 0 0 0 0 0 0 0 0 0
9 9 9 9 8 6 4 3 3 3 3 2 1 1 1 0 0 0 0 0 0 0 0 0 1 3 3 2 1 0 0 0 0 0 0 0 0 0
7 7 7 8 8 7 4 2 2 3 3 2 1 1 0 0 0 0 0 0 0 0 0 0 2 4 4 3 1 0 0 0 0 0 0 0 0 0
4 5 6 7 8 7 5 4 3 2 2 2 2 2 1 0 0 0 0 0 0 0 0 0 1 2 3 2 1 0 0 0 0 0 0 0 0 0
4 5 6 7 7 6 6 5 4 3 2 1 1 1 1 0 0 0 0 0 0 0 0 0 0 0 1 1 0 0 0 0 0 0 0 0 0 0
3 4 5 5 5 4 4 4 4 3 3 2 1 1 0 0 0 0 0 0 0 0 0 0 0 0 0 0 0 0 0 0 0 0 0 0 0 0
1 1 2 3 3 2 2 2 3 2 3 3 2 1 1 1 0 0 0 0 0 0 0 0 0 0 0 0 0 0 0 0 0 0 0 0 0 0
0 0 0 1 1 1 0 1 1 1 1 2 3 3 3 2 1 0 0 0 0 0 0 0 0 0 0 0 0 0 0 0 0 0 0 0 0 0
0 0 0 0 0 0 0 0 0 0 0 1 3 3 4 3 1 0 0 0 0 0 0 0 0 0 0 0 1 1 1 0 0 0 0 0 0 0
1 0 0 0 0 0 0 0 0 0 0 1 2 3 3 3 1 1 0 0 0 0 0 0 0 0 0 1 1 2 2 1 1 0 0 0 0 0
1 1 1 1 0 0 0 0 0 0 0 1 2 3 3 3 3 2 1 0 0 0 0 0 0 0 1 1 2 3 3 3 2 1 0 0 0 0
1 1 2 2 1 1 1 0 0 0 0 0 1 2 3 3 3 2 1 0 0 0 0 0 0 0 0 1 1 2 2 2 2 1 0 0 0 0
1 2 3 3 3 2 2 1 0 0 0 0 0 1 2 3 3 3 1 0 0 0 0 0 0 0 0 0 1 1 1 1 1 1 0 0 0 0
0 1 2 3 3 3 2 1 0 0 0 0 0 0 1 2 3 4 2 1 0 0 0 0 0 0 0 0 0 0 0 0 0 0 0 0 0 0
0 0 1 2 2 2 2 1 0 0 0 0 0 1 1 2 2 3 3 1 0 0 0 0 0 0 0 0 0 0 0 0 0 0 0 0 0 0
0 0 0 1 1 1 2 2 1 1 1 1 1 2 2 2 2 2 3 2 1 0 0 0 0 0 0 0 0 0 0 0 0 0 0 0 0 0
0 0 0 0 0 1 2 3 2 2 2 2 2 3 3 3 2 2 3 2 1 0 0 0 0 0 0 0 0 0 0 0 0 0 0 0 0 0
Wind_Speed
2 2 2 2 2 2 3 4 4 2 3 3 2 2 2 1 2 1 2 3 3 3 3 3 3 3 2 2 2 1 1 2 1 2 2 2 3 3
2 2 2 2 2 2 3 3 3 3 3 3 3 2 3 2 3 2 3 4 4 4 4 4 4 3 3 3 3 3 3 2 2 2 3 3 2 3
2 2 2 2 2 2 2 2 2 2 2 2 1 1 2 3 2 2 2 2 2 5 5 4 4 4 4 4 4 3 3 3 3 3 3 3 3 3
2 1 2 1 2 2 2 2 2 3 3 2 1 1 2 3 3 2 2 2 2 4 5 5 5 5 5 5 4 4 4 3 3 3 3 3 3 3
2 2 2 2 2 2 2 2 2 2 2 3 2 1 1 1 1 1 2 1 2 3 4 4 5 5 5 5 5 4 4 4 3 3 3 3 3 3
2 2 2 2 3 3 2 2 2 2 2 2 2 1 1 1 2 1 1 2 3 3 3 3 4 5 5 6 6 5 5 5 5 4 4 4 4 3
1 1 2 2 3 3 2 2 2 2 1 2 2 1 1 1 2 2 3 2 2 2 2 2 2 2 4 5 6 7 7 6 6 6 5 5 4 4
1 1 1 1 2 2 3 3 4 4 3 2 2 2 3 3 2 2 2 1 2 3 2 3 2 3 4 3 6 7 7 7 7 7 6 6 6 6
1 1 0 0 1 1 1 2 2 4 5 4 4 4 4 4 4 3 3 3 4 3 2 3 2 4 4 4 7 8 9 9 8 8 7 7 7 7
1 2 1 1 1 2 1 1 1 2 3 4 4 5 5 5 6 6 5 3 2 1 3 3 3 4 4 4 7 9 9 9 9 9 8 8 7 7
1 1 1 2 2 2 2 1 2 3 3 3 4 5 6 6 5 3 2 2 2 3 2 2 2 2 3 4 5 9 10 10 10 10 9 9 8 7
1 1 2 2 3 2 2 2 3 4 2 2 2 3 3 4 6 6 5 4 2 3 3 3 2 1 2 3 3 4 6 9 10 10 10 10 9 5
2 2 2 3 3 4 3 3 5 4 2 2 2 2 2 2 3 4 5 5 4 4 4 4 3 2 3 3 3 4 4 4 4 6 8 9 9 8
2 2 2 3 3 4 3 4 5 3 1 1 2 2 3 3 3 4 5 5 6 6 5 5 3 4 3 3 3 3 3 4 4 4 4 6 8 9
2 3 3 4 3 2 4 5 3 2 1 2 3 3 3 3 2 2 3 3 3 4 4 4 4 4 4 4 4 3 3 3 4 5 5 5 5 5
1 2 3 3 2 3 3 3 2 2 3 3 3 3 2 2 2 2 2 2 2 3 3 4 5 5 4 5 4 4 4 4 4 5 5 5 5 5
1 1 1 1 1 2 2 2 2 2 2 2 3 3 2 3 3 2 2 2 2 3 3 3 3 3 5 4 4 5 4 4 4 5 5 5 6 7
2 1 2 2 2 3 3 3 2 2 3 3 3 3 3 3 3 2 2 2 3 4 3 2 1 1 2 3 6 6 5 5 4 4 4 5 6 6
2 2 3 3 3 3 3 3 3 3 3 2 3 3 3 3 3 3 3 3 4 4 3 2 2 2 3 5 5 6 5 4 3 4 5 5 6 6
3 3 4 3 3 3 3 3 3 3 2 3 3 3 3 3 3 4 3 4 4 4 3 3 3 4 6 6 4 4 6 5 4 5 4 4 4 4
3 3 3 3 3 3 3 3 3 3 3 3 3 4 3 3 4 4 4 5 4 4 5 5 6 6 4 1 2 4 3 6 6 5 4 3 3 2
3 3 3 3 3 3 3 3 3 3 3 3 3 3 3 3 4 5 4 4 4 5 5 5 3 2 2 3 5 5 4 3 4 5 5 6 4 5
3 3 3 3 3 3 3 3 4 4 4 3 3 3 3 4 4 4 4 4 4 5 4 4 3 2 3 4 4 4 4 4 2 2 3 5 6 7
Wind_Direction
205 199 199 213 204 194 175 165 162 193 239 230 222 234 221 210 208 199 202 197 192 189 186 185 185 180 183 179 179 176 135 128 145 162 164 175 184 191
210 204 218 219 217 203 193 192 175 172 209 224 217 218 212 216 207 215 216 204 202 195 197 196 195 191 192 189 184 167 153 155 165 179 188 187 187 192
237 217 230 215 206 207 201 196 187 166 191 246 223 211 195 209 215 228 223 212 217 206 207 205 203 201 200 196 187 181 178 177 183 193 193 190 191 192
235 225 240 225 209 206 191 197 203 190 174 197 214 198 215 208 203 213 219 206 217 216 216 214 212 207 204 200 200 199 197 195 193 194 195 194 194 198
220 216 234 211 221 214 199 201 209 201 165 167 200 205 218 200 189 236 228 231 227 228 224 219 215 211 207 206 207 207 203 202 202 206 217 217 216 214
237 224 223 210 208 207 205 203 193 176 170 170 184 206 211 204 171 201 243 250 243 238 234 228 224 222 218 213 213 213 212 211 210 213 223 234 231 223
273 253 233 215 210 202 192 190 179 180 180 184 190 189 213 189 202 206 223 239 257 232 228 237 227 237 232 225 220 220 219 218 220 223 222 225 230 230
248 286 271 208 200 189 186 186 181 183 192 193 200 205 221 218 210 206 199 200 253 231 194 242 216 236 237 221 220 217 217 218 223 223 223 225 226 227
226 232 252 234 156 157 186 184 200 210 197 191 205 218 212 210 197 209 212 214 228 223 177 241 231 237 239 230 220 220 220 221 223 222 220 224 228 227
235 214 200 223 214 173 184 219 249 245 230 209 209 222 221 211 200 204 211 224 261 237 175 218 234 235 242 240 230 224 225 227 226 223 220 221 225 228
286 256 204 225 232 182 167 221 281 286 269 242 230 236 236 226 206 183 189 188 250 254 202 199 233 249 248 240 237 227 226 229 230 228 225 224 224 223
300 285 249 248 253 224 201 213 246 265 277 296 281 267 250 234 211 199 196 200 217 245 223 195 215 196 267 257 240 233 231 235 232 229 225 223 220 214
261 277 276 277 263 258 249 233 237 244 252 245 254 261 262 244 229 218 206 198 203 228 217 183 196 198 212 257 264 235 226 232 229 231 228 226 219 208
237 253 262 269 274 271 265 260 256 246 245 257 262 260 258 253 245 232 224 220 219 224 214 188 196 200 204 235 256 253 236 231 222 225 226 228 227 224
249 260 267 268 273 272 262 262 250 232 226 249 258 260 254 253 255 256 247 239 250 248 228 209 206 208 208 223 235 234 239 238 219 223 224 220 217 212
290 301 297 278 267 265 272 264 242 227 223 238 251 259 269 266 253 246 248 247 264 280 266 235 220 211 225 234 228 237 227 227 223 222 222 226 223 216
213 332 340 336 311 299 291 275 263 258 246 249 250 263 269 261 257 255 250 245 242 260 278 282 261 241 230 225 238 240 237 244 235 218 213 229 231 225
140 222 262 264 260 262 266 267 257 254 249 244 245 248 253 255 260 263 260 247 250 252 251 250 263 306 312 272 231 235 238 239 237 224 216 229 242 234
176 238 246 249 252 250 251 252 254 254 252 247 248 250 251 252 250 251 252 259 256 256 253 236 218 214 255 274 266 222 228 244 231 227 223 226 239 238
221 239 248 252 250 249 250 253 260 263 259 255 256 261 256 251 249 250 247 249 255 256 257 249 229 222 231 248 257 259 227 227 234 240 239 239 246 254
244 246 247 245 250 252 253 255 254 257 261 259 256 255 255 252 253 253 251 252 251 251 252 251 246 244 241 234 266 269 252 236 235 236 226 225 237 232
251 246 243 241 246 251 252 252 253 255 258 254 256 257 256 253 255 257 254 253 251 252 255 259 263 250 218 234 254 264 271 272 262 255 237 213 199 209
251 251 248 247 247 251 250 250 249 254 252 248 248 253 256 258 259 259 257 251 253 257 264 270 267 243 234 236 249 260 267 273 276 282 281 267 242 236